Regional Weather Roundup
Issued by NWS Charleston, SC

Current Version | Previous Version | Graphics & Text | Print | Product List | Glossary On
Versions: 1 2 3 4 5 6 7 8 9 10 11 12 13 14 15 16 17 18 19 20 21 22 23 24 25 26 27 28 29 30 31 32 33 34 35 36 37 38 39 40 41 42 43 44 45 46 47 48 49 50
000
ASUS42 KCHS 241412
RWRCHS

REGIONAL WEATHER ROUNDUP
NATIONAL WEATHER SERVICE CHARLESTON SC
1000 AM EDT FRI MAR 24 2017

NOTE: "FAIR" INDICATES FEW OR NO CLOUDS BELOW 12,000 FEET WITH NO
SIGNIFICANT WEATHER AND/OR OBSTRUCTIONS TO VISIBILITY.

NOT ALL STATIONS ARE QUALITY CONTROLLED. USE DATA WITH CAUTION...
ESPECIALLY DEWPOINT OBSERVATIONS.

SCZ027-030-031-034>040-042>050-241500-
...SOUTHEAST SOUTH CAROLINA...

CITY           SKY/WX    TMP DP  RH WIND       PRES   REMARKS
N CHARLESTON   MOSUNNY   63  52  67 VRB7      30.49R
WATERFRONT PRK   N/A     58  55  89 N5        30.48R
JOHNS ISLAND   FAIR      64  55  72 N5        30.49R
PINOPOLIS        N/A     54  48  82 VRB3      30.40F
MONCKS CORNER  FAIR      57  48  72 NE3       30.49S
SUMMERVILLE    FAIR      57  50  77 E5        30.50S
BEAUFORT MCAS  SUNNY     61  53  75 NE6       30.48S
BEAUFORT ARPT  FAIR      59  52  77 NE6       30.48R
HILTON HEAD IS SUNNY     61  54  77 N7        30.48S
WALTERBORO     SUNNY     59  48  67 CALM      30.50S
ALLENDALE      FAIR      57  48  72 VRB5      30.48S

...SOUTHERN MIDLANDS AND PEE DEE...

CITY           SKY/WX    TMP DP  RH WIND       PRES   REMARKS
GEORGETOWN     FAIR      61  52  72 E7        30.51S
KINGSTREE      FAIR      54  43  66 E5        30.50F
ORANGEBURG     SUNNY     55  47  74 E5        30.50S
BARNWELL       FAIR      59  48  67 E7        30.49S
AIKEN          FAIR      55  43  62 SE8       30.51S
MANNING        FAIR      55  45  67 SE3       30.50S
COLUMBIA       PTSUNNY   53  43  68 E8        30.50S
SUMTER         MOSUNNY   56  44  64 E6        30.48S
FLORENCE       SUNNY     54  45  71 SE7       30.51S
MYRTLE BEACH   SUNNY     55  48  76 E9        30.52F
N MYRTLE BEACH SUNNY     57  48  72 E5        30.51F

$$

GAZ063-065-086>088-099>101-113>116-118-119-134>141-150-241500-
...SOUTHEAST GEORGIA...

CITY           SKY/WX    TMP DP  RH WIND       PRES   REMARKS
SAVANNAH ARPT  SUNNY     61  50  67 NE5       30.47S
HUNTER AAF     SUNNY     63  55  74 NE3       30.44S
FORT STEWART   SUNNY     62  50  64 E6        30.43F
STATESBORO     SUNNY     60  52  73 SE5       30.47S
SYLVANIA       SUNNY    N/A N/A N/A SE5       30.47F
CLAXTON        FAIR     N/A N/A N/A NE6       30.46F

...CSRA...CENTRAL AND FAR SOUTHEAST GEORGIA...

CITY           SKY/WX    TMP DP  RH WIND       PRES   REMARKS
THOMSON        SUNNY     56  43  61 S5        30.52S
AUGUSTA-BUSH   SUNNY     59  46  62 E5        30.48S
AUGUSTA-DANIEL SUNNY     57  43  59 E7        30.48S
SWAINSBORO     FAIR      59  48  67 E7        30.46F
VIDALIA        SUNNY     63  52  67 E8        30.45F
EASTMAN        FAIR      62  43  50 SE6       30.47S
HAZLEHURST     FAIR      60  54  79 E3        30.43S
ALMA           SUNNY     61  53  75 E7        30.43S
WAYCROSS       SUNNY     65  59  80 SE8       30.43S
JESUP          FAIR      63  52  67 E3        30.44S
BAXLEY         FAIR      61  55  82 E7        30.44R
BRUNSWICK      SUNNY     68  61  77 NE6       30.44F
SAINT SIMONS   SUNNY     68  56  65 E9        30.43S

$$

SCZ027-028-034-036>038-045-046-048>050-GAZ119-141-241500-
...LAKE AND SUPPLEMENTAL COASTAL OBSERVATIONS...

STATION/POSITION TIME  TEMP    WIND        PRES    WAVE   SWELL
                       AIR SEA DIR/SP/G            HT/PER HT/PER/DIR
                 (UTC) (F)     (DEG/KT/KT) (MB)    (FT/S) (FT/S/D)
WINYAH BAY       1245   55      50/ 11     1033.0
LAKE MURRAY      1320   50      80/  1/  4 1032.2
ACE BASIN NERRS  NOT AVBL
FORT PULASKI     1342   60 60   50/  8/  9 1031.7R
SAPELO ISLAND    1300   65      70/  6     1031.0

$$

ANZ835-935-AMZ111-154-330-350-352-354-370-450-454-472-241500-
...C-MAN AND BUOY OBSERVATIONS...

STATION/POSITION TIME  TEMP    WIND        PRES    WAVE   SWELL
                       AIR SEA DIR/SP/G            HT/PER HT/PER/DIR
                 (UTC) (F)     (DEG/KT/KT) (MB)    (FT/S) (FT/S/D)
BUOY 41004       1250   67 71   90/ 10/ 14 1031.3    5/ 7   3/110/ 7
BUOY 41008       1250   64 62   80/  8/ 10 1030.3    5/ 6   5/100/ 6
FOLLY BEACH CMAN 1300   58      30/  9/ 10 1032.5S
CAPERS NEARSHORE 1308   59      50/ 10/ 14 1031.9R
FRIPP NEARSHORE  1308   58 59   20/ 10/ 14 1031.3R


STATION/POSITION TIME  TEMP    WIND        PRES    WAVE   SWELL
                       AIR SEA DIR/SP/G            HT/PER HT/PER/DIR
                 (UTC) (F)     (DEG/KT/KT) (MB)    (FT/S) (FT/S/D)
5E ST. MARYS GA  1330      63                N/A     5/ 7   2/ 90/11
FRYING PAN BUOY  1350   66 71  150/  8/ 12 1033.0S   4/10   3/100/10
BUOY 41025       1350   60 75  180/ 14/ 19 1034.3R   5/10   5/ 60/10
CAPE LOOKOUT NC  1300   52      40/  6/  7 1033.5R
BUOY 41002       1250   63 73   70/ 17/ 21 1033.0    6/10   5/ 10/10
BUOY 41010       NOT AVBL
ST AUGUSTINE FL  1400   66 65   70/ 11/ 12 1030.4R


$$




USA.gov is the U.S. government's official web portal to all federal, state and local government web resources and services.